Location: Glencliff
(36.1226°N, 86.7183°W)
Time: 14:39:28
(UTC+00:00)

Cosmos 1633 Rocket - Pass Details

Date: 25 August 2019
Orbit: 608 x 623 km, 82.5° (Epoch: 19 September)

Event Time Altitude Azimuth Distance (km) Brightness Sun altitude
Rises 10:25:39 0° 358° (N) 2,909 6.8 -9.9°
Reaches altitude 10° 10:27:56 10° 3° (N) 1,997 6.0 -9.5°
Maximum altitude 10:32:16 55° 81° (E) 750 3.9 -8.7°
Drops below altitude 10° 10:36:34 10° 159° (SSE) 1,975 5.7 -7.9°
Sets 10:38:49 0° 164° (SSE) 2,874 6.5 -7.4°
